DW4524 Weather Reports


Display with metric or nautical units.
time (UTC)temp
F
wind
direction
speed
MPH
gust
MPH
rain 1hr
in
rain 24hr
in
rain mn
in
humidity
%
barometer
mb
20260505170901 35 264 0.0 0.0 0.01 0.08 0.02 92 1012.1
20260505170401 35 290 0.0 0.0 0.01 0.08 0.02 92 1012.2
20260505165902 35 342 0.0 0.0 0.01 0.08 0.02 92 1012.1
20260505165401 35 292 0.0 1.0 0.01 0.08 0.02 92 1012.1
20260505164901 35 350 1.0 3.0 0.01 0.08 0.02 92 1012.1
20260505164402 35 85 0.0 3.0 0.01 0.08 0.02 92 1012.0
20260505163902 35 16 1.0 3.0 0.01 0.08 0.02 92 1012.0
20260505163401 35 1 0.0 2.0 0.02 0.08 0.02 92 1011.9
20260505162902 35 294 0.0 1.0 0.01 0.07 0.01 92 1012.0
20260505162401 35 73 0.0 2.0 0.01 0.07 0.01 92 1011.9
20260505161901 35 91 0.0 0.0 0.01 0.07 0.01 92 1012.0
20260505161402 35 253 0.0 0.0 0.01 0.07 0.01 92 1012.1
20260505160901 35 252 0.0 0.0 0.01 0.07 0.01 91 1012.1
20260505160401 35 295 0.0 0.0 0.01 0.07 0.01 92 1012.0
20260505152401 36 60 0.0 2.0 0.00 0.06 0.00 91 1012.0
20260505151901 36 292 0.0 1.0 0.00 0.06 0.00 91 1012.1
20260505151402 36 319 0.0 2.0 0.00 0.06 0.00 91 1012.1
20260505150902 36 323 0.0 1.0 0.00 0.06 0.00 91 1012.1
20260505150402 36 108 0.0 1.0 0.00 0.06 0.00 90 1012.1
20260505140401 39 223 0.0 2.0 0.00 0.06 0.00 87 1012.3
20260505124902 41 110 0.0 0.0 0.00 0.06 0.00 85 1011.2
20260505123902 41 261 0.0 0.0 0.00 0.06 0.00 85 1011.0
20260505123401 41 168 0.0 0.0 0.00 0.06 0.00 85 1011.0
20260505122902 41 255 0.0 0.0 0.00 0.06 0.00 84 1010.8
20260505122402 41 252 0.0 0.0 0.00 0.06 0.00 84 1010.6
20260505121902 41 246 0.0 0.0 0.00 0.06 0.00 83 1010.6
20260505121402 41 91 0.0 0.0 0.00 0.06 0.00 83 1010.5
20260505120902 41 274 0.0 0.0 0.00 0.06 0.00 82 1010.5
20260505120402 41 274 0.0 1.0 0.00 0.06 0.00 82 1010.6
20260505115901 41 66 0.0 2.0 0.00 0.06 0.00 81 1010.5
20260505115402 41 263 0.0 1.0 0.00 0.06 0.00 81 1010.6
20260505114902 41 210 0.0 2.0 0.00 0.06 0.00 82 1010.7
20260505113901 41 94 0.0 0.0 0.00 0.06 0.00 83 1010.6
20260505113402 41 224 0.0 0.0 0.00 0.06 0.00 83 1010.5
20260505112901 41 226 0.0 0.0 0.00 0.06 0.00 83 1010.4
20260505112402 41 222 0.0 0.0 0.00 0.06 0.00 83 1010.4
20260505111901 41 231 0.0 0.0 0.00 0.06 0.00 83 1010.3
20260505111402 41 1 0.0 0.0 0.00 0.06 0.00 84 1010.4
20260505110902 41 248 0.0 0.0 0.00 0.06 0.00 86 1010.6
20260505110402 41 248 0.0 0.0 0.00 0.06 0.00 87 1010.5
20260505101402 41 90 0.0 0.0 0.00 0.06 0.00 90 1010.5
20260505100902 41 90 0.0 0.0 0.00 0.06 0.00 89 1010.4
20260505100402 41 90 0.0 0.0 0.00 0.06 0.00 89 1010.4
20260505095902 41 90 0.0 0.0 0.00 0.06 0.00 89 1010.4
20260505095403 41 90 0.0 0.0 0.00 0.06 0.00 89 1010.3
20260505094903 41 90 0.0 0.0 0.00 0.06 0.00 89 1010.4
20260505094403 41 90 0.0 0.0 0.00 0.06 0.00 89 1010.3
20260505093903 41 90 0.0 0.0 0.00 0.06 0.00 89 1010.3
20260505093403 41 90 0.0 0.0 0.00 0.06 0.00 89 1010.0
20260505092402 41 90 0.0 0.0 0.00 0.06 0.00 88 1010.1
20260505091902 41 90 0.0 0.0 0.00 0.06 0.00 88 1010.2
20260505090902 42 90 0.0 2.0 0.00 0.06 0.00 89 1010.3
20260505090403 42 92 0.0 3.0 0.00 0.06 0.00 90 1010.2
20260505085902 42 95 0.0 0.0 0.00 0.06 0.00 90 1010.3
20260505085402 42 90 0.0 0.0 0.00 0.06 0.00 91 1010.5
20260505084902 42 100 0.0 1.0 0.00 0.06 0.00 91 1010.8
20260505084402 42 254 0.0 1.0 0.00 0.06 0.00 91 1010.9
20260505083903 42 254 0.0 0.0 0.00 0.06 0.00 92 1011.0
20260505083402 42 255 0.0 0.0 0.00 0.06 0.00 92 1011.1
20260505082902 42 254 0.0 0.0 0.00 0.06 0.00 92 1010.9
20260505081902 42 255 0.0 0.0 0.00 0.06 0.00 92 1011.1
20260505081402 43 254 0.0 0.0 0.00 0.06 0.00 92 1011.1
20260505080903 43 254 0.0 0.0 0.00 0.06 0.00 92 1011.1
20260505080402 43 255 0.0 1.0 0.00 0.06 0.00 92 1011.1
20260505075903 43 254 0.0 1.0 0.00 0.06 0.00 92 1011.1
20260505075402 43 277 1.0 2.0 0.00 0.06 0.00 92 1011.2
20260505074902 43 241 0.0 1.0 0.00 0.06 0.00 92 1011.2
20260505074403 43 270 0.0 1.0 0.00 0.06 0.00 92 1011.2
20260505073903 43 251 0.0 1.0 0.00 0.06 0.00 91 1011.3
20260505072903 43 94 0.0 0.0 0.00 0.06 0.00 91 1011.4
20260505072402 43 94 0.0 0.0 0.00 0.06 0.00 91 1011.4
20260505071402 43 94 0.0 1.0 0.00 0.06 0.00 91 1011.3
20260505070902 43 307 0.0 1.0 0.00 0.06 0.00 91 1011.4
20260505070402 43 299 0.0 1.0 0.00 0.06 0.00 91 1011.5
20260505065903 43 304 0.0 0.0 0.03 0.06 0.00 91 1011.6
20260505065402 43 304 1.0 2.0 0.03 0.06 0.00 90 1011.5
20260505064902 43 319 0.0 2.0 0.03 0.06 0.00 90 1011.4
20260505064403 43 20 0.0 2.0 0.04 0.06 0.00 90 1011.4
20260505063903 43 316 0.0 2.0 0.04 0.06 0.00 90 1011.5
20260505063403 43 307 0.0 0.0 0.04 0.06 0.00 90 1011.6
20260505062903 43 274 0.0 0.0 0.04 0.06 0.00 89 1011.7
20260505062402 43 336 0.0 0.0 0.04 0.06 0.00 89 1011.4
20260505061902 43 64 0.0 0.0 0.04 0.06 0.00 88 1011.4
20260505061402 43 91 0.0 1.0 0.04 0.06 0.00 88 1011.4
20260505060903 44 95 0.0 2.0 0.04 0.06 0.00 87 1011.5
20260505060403 44 297 0.0 1.0 0.01 0.06 0.03 87 1011.8
20260505055402 44 341 0.0 0.0 0.01 0.03 0.03 85 1011.9
20260505054902 44 78 0.0 0.0 0.01 0.03 0.03 84 1011.9
20260505054403 44 15 0.0 0.0 0.00 0.02 0.02 83 1011.8
20260505053903 45 311 0.0 0.0 0.00 0.02 0.02 82 1012.0
20260505053403 45 318 0.0 2.0 0.00 0.02 0.02 80 1011.9
20260505052903 45 93 3.0 6.0 0.00 0.02 0.02 78 1011.8
20260505052403 45 75 0.0 0.0 0.00 0.02 0.02 78 1012.0
20260505051903 45 290 0.0 0.0 0.00 0.02 0.02 77 1012.0
20260505051403 45 289 0.0 2.0 0.00 0.02 0.02 76 1011.9
20260505050903 45 64 0.0 1.0 0.00 0.02 0.02 76 1012.0
20260505050402 45 73 0.0 0.0 0.00 0.02 0.02 76 1011.9
20260505041403 45 312 1.0 5.0 0.00 0.02 0.02 77 1010.9
20260505040903 45 18 2.0 9.0 0.00 0.02 0.02 77 1010.9
20260505040402 45 47 2.0 8.0 0.00 0.02 0.02 77 1010.9
20260505035903 45 285 2.0 5.0 0.00 0.02 0.02 77 1010.9
20260505035403 46 41 2.0 7.0 0.00 0.02 0.02 77 1010.7
20260505034902 46 63 1.0 6.0 0.00 0.02 0.02 77 1010.7
20260505034403 46 15 2.0 5.0 0.00 0.02 0.02 76 1010.9
20260505033903 46 67 2.0 6.0 0.00 0.02 0.02 76 1011.1
20260505033403 46 322 1.0 9.0 0.00 0.02 0.02 77 1011.0
20260505032903 46 329 3.0 7.0 0.00 0.02 0.02 77 1011.0
20260505032402 46 307 2.0 3.0 0.00 0.02 0.02 77 1011.0
20260505031403 46 45 2.0 7.0 0.00 0.02 0.02 76 1010.6
20260505030902 46 12 1.0 6.0 0.00 0.02 0.02 76 1010.5
20260505030403 46 53 2.0 3.0 0.00 0.02 0.02 76 1010.5
20260505025403 46 42 2.0 3.0 0.00 0.02 0.02 76 1010.7
20260505024903 46 45 2.0 8.0 0.00 0.02 0.02 77 1010.8
20260505024403 46 15 2.0 5.0 0.00 0.02 0.02 78 1010.8
20260505023902 46 345 0.0 0.0 0.01 0.02 0.02 78 1010.8
20260505023403 46 23 0.0 2.0 0.01 0.02 0.02 78 1010.7
20260505022903 46 29 1.0 2.0 0.02 0.02 0.02 77 1010.7
20260505022403 46 2 1.0 3.0 0.02 0.02 0.02 78 1010.8
20260505021903 46 20 0.0 2.0 0.02 0.02 0.02 77 1010.7
20260505021403 46 80 1.0 3.0 0.02 0.02 0.02 77 1010.7
20260505020903 46 92 0.0 3.0 0.02 0.02 0.02 77 1010.9
20260505020403 46 5 0.0 3.0 0.02 0.02 0.02 78 1011.1
20260505015903 46 75 1.0 3.0 0.02 0.02 0.02 77 1011.0
20260505015403 46 72 2.0 6.0 0.02 0.02 0.02 76 1010.9
20260505014903 47 74 3.0 9.0 0.02 0.02 0.02 74 1011.0
20260505014404 48 6 3.0 9.0 0.02 0.02 0.02 68 1010.7
20260505013403 50 80 2.0 5.0 0.01 0.01 0.01 58 1010.7
20260505012903 51 77 7.0 17.0 0.00 0.00 0.00 57 1010.7
20260505012403 51 88 0.0 6.0 0.00 0.00 0.00 57 1010.7
20260505011903 52 357 2.0 8.0 0.00 0.00 0.00 57 1010.7
20260505011403 52 14 1.0 6.0 0.00 0.00 0.00 52 1010.8
20260505010904 53 50 3.0 8.0 0.00 0.00 0.00 50 1010.5
20260505010403 54 291 2.0 6.0 0.00 0.00 0.00 47 1010.2
20260505005903 54 319 2.0 9.0 0.00 0.00 0.00 45 1010.1
20260505005403 54 290 2.0 6.0 0.00 0.00 0.00 44 1009.9
20260505004903 55 263 1.0 5.0 0.00 0.00 0.00 43 1009.7
20260505004403 55 304 2.0 8.0 0.00 0.00 0.00 43 1009.3
20260505003903 55 51 2.0 6.0 0.00 0.00 0.00 42 1009.3
20260505003404 55 70 3.0 10.0 0.00 0.00 0.00 41 1009.1
20260505002903 56 29 4.0 9.0 0.00 0.00 0.00 39 1009.0
20260505002403 56 7 2.0 9.0 0.00 0.00 0.00 39 1009.0
20260505001903 57 27 2.0 9.0 0.00 0.00 0.00 38 1008.7
20260505001404 57 52 5.0 12.0 0.00 0.00 0.00 38 1008.7
20260505000904 58 57 3.0 9.0 0.00 0.00 0.00 37 1008.8
20260505000405 58 60 3.0 7.0 0.00 0.00 0.00 36 1008.5
20260504235903 59 58 5.0 10.0 0.00 0.00 0.00 35 1008.7
20260504235403 59 73 6.0 12.0 0.00 0.00 0.00 34 1008.6
20260504234904 60 14 3.0 7.0 0.00 0.00 0.00 34 1008.6
20260504234403 60 76 3.0 10.0 0.00 0.00 0.00 35 1008.4
20260504233904 60 48 3.0 10.0 0.00 0.00 0.00 34 1008.5
20260504233403 60 40 3.0 12.0 0.00 0.00 0.00 34 1008.6
20260504232904 61 57 4.0 9.0 0.00 0.00 0.00 34 1008.7
20260504232403 61 40 3.0 8.0 0.00 0.00 0.00 34 1008.8
20260504231904 61 314 1.0 5.0 0.00 0.00 0.00 33 1008.6
20260504231403 61 329 2.0 6.0 0.00 0.00 0.00 33 1008.7
20260504230903 61 304 2.0 6.0 0.00 0.00 0.00 34 1008.6
20260504230404 60 299 1.0 5.0 0.00 0.00 0.00 34 1008.6
20260504225903 60 260 0.0 1.0 0.00 0.00 0.00 34 1008.7
20260504225404 60 306 1.0 2.0 0.00 0.00 0.00 35 1008.6
20260504224903 60 87 1.0 2.0 0.00 0.00 0.00 35 1008.5
20260504224403 60 68 1.0 3.0 0.00 0.00 0.00 34 1008.7
20260504222903 61 220 4.0 7.0 0.00 0.00 0.00 33 1008.6
20260504222403 61 226 3.0 8.0 0.00 0.00 0.00 33 1008.6
20260504221403 61 201 3.0 8.0 0.00 0.00 0.00 32 1008.5
20260504220904 61 0 2.0 8.0 0.00 0.00 0.00 32 1008.5
20260504215404 61 72 3.0 10.0 0.00 0.00 0.00 29 1008.3
20260504214904 61 87 3.0 8.0 0.00 0.00 0.00 31 1008.3
20260504214404 61 300 2.0 6.0 0.00 0.00 0.00 32 1008.4
20260504212903 63 340 3.0 7.0 0.00 0.00 0.00 26 1008.2
20260504212404 63 82 1.0 8.0 0.00 0.00 0.00 25 1008.1
20260504211904 63 300 2.0 8.0 0.00 0.00 0.00 25 1008.1
20260504211404 64 306 3.0 9.0 0.00 0.00 0.00 24 1008.0
20260504210903 65 5 2.0 7.0 0.00 0.00 0.00 24 1007.9
20260504210404 65 330 2.0 9.0 0.00 0.00 0.00 24 1007.9
20260504205404 66 287 3.0 9.0 0.00 0.00 0.00 23 1008.0
20260504204904 66 73 1.0 6.0 0.00 0.00 0.00 23 1008.1
20260504204404 66 173 1.0 3.0 0.00 0.00 0.00 22 1008.1
20260504203904 65 199 2.0 6.0 0.00 0.00 0.00 22 1008.3
20260504202401 65 200 2.0 6.0 0.00 0.00 0.00 23 1008.4
20260504201901 65 229 5.0 8.0 0.00 0.00 0.00 22 1008.5
20260504201400 65 218 4.0 9.0 0.00 0.00 0.00 25 1008.5
20260504200901 65 210 4.0 9.0 0.00 0.00 0.00 23 1008.6
20260504200400 65 241 8.0 14.0 0.00 0.00 0.00 24 1008.7
20260504195901 65 218 6.0 12.0 0.00 0.00 0.00 23 1008.7
20260504194901 65 222 6.0 13.0 0.00 0.00 0.00 22 1008.7
20260504194401 65 215 7.0 12.0 0.00 0.00 0.00 21 1008.7
20260504193401 66 253 0.0 6.0 0.00 0.00 0.00 19 1008.7
20260504192901 66 203 1.0 7.0 0.00 0.00 0.00 21 1008.7
20260504192401 66 213 3.0 9.0 0.00 0.00 0.00 18 1008.7
20260504191901 66 294 0.0 2.0 0.00 0.00 0.00 17 1008.7
20260504191401 67 236 1.0 6.0 0.00 0.00 0.00 17 1008.8
20260504190901 68 264 1.0 8.0 0.00 0.00 0.00 16 1008.9
20260504190401 69 236 5.0 8.0 0.00 0.00 0.00 18 1009.0
20260504185901 69 239 3.0 9.0 0.00 0.00 0.00 18 1008.9
20260504185402 69 215 2.0 10.0 0.00 0.00 0.00 19 1009.0
20260504184901 69 209 6.0 12.0 0.00 0.00 0.00 18 1009.1
20260504184401 68 211 3.0 7.0 0.00 0.00 0.00 18 1009.0
20260504183901 68 84 0.0 3.0 0.00 0.00 0.00 19 1009.2
20260504183401 68 223 1.0 5.0 0.00 0.00 0.00 18 1009.4
20260504182901 68 223 0.0 3.0 0.00 0.00 0.00 19 1009.6
20260504181901 67 225 2.0 8.0 0.00 0.00 0.00 20 1009.7
20260504181401 67 212 5.0 10.0 0.00 0.00 0.00 18 1009.7
20260504180401 66 196 0.0 2.0 0.00 0.00 0.00 21 1009.7
20260504175902 66 230 4.0 9.0 0.00 0.00 0.00 21 1009.9
20260504175401 65 222 4.0 7.0 0.00 0.00 0.00 22 1010.0
20260504174401 64 215 5.0 10.0 0.00 0.00 0.00 22 1010.2
20260504173901 63 208 4.0 12.0 0.00 0.00 0.00 24 1010.4
20260504173402 63 228 7.0 12.0 0.00 0.00 0.00 25 1010.4
20260504172901 63 207 5.0 9.0 0.00 0.00 0.00 24 1010.4
20260504172401 63 207 3.0 10.0 0.00 0.00 0.00 25 1010.5
20260504171902 64 216 5.0 10.0 0.00 0.00 0.00 24 1010.5
20260504171401 64 214 6.0 12.0 0.00 0.00 0.00 25 1010.5